Probability
31 19 8 2 0 0 0 0 0 0 0 0 0 0 0 0 1 4 9 10 7 7 7 5 3 2 1 0 0 0 0 0 0 0 0 0 0 0 0 0 0 0 0 0 0 0 0 0 0
30 23 11 3 0 0 0 0 0 0 0 1 2 3 3 2 4 10 15 13 9 7 6 4 3 1 0 0 0 0 0 0 0 0 0 0 0 0 0 0 0 0 0 0 0 0 0 0 0
33 25 12 3 0 0 0 0 0 0 0 3 6 10 11 9 9 16 21 18 12 8 5 4 4 1 0 0 0 0 0 0 0 0 0 0 0 0 0 0 0 0 0 0 0 0 0 0 0
27 20 8 1 0 0 0 0 0 0 1 5 10 16 23 20 16 21 24 21 15 10 6 5 4 1 0 0 0 0 0 0 0 0 0 0 0 0 0 0 0 0 0 0 0 0 0 0 0
14 10 4 0 0 0 0 0 0 0 2 6 12 21 30 30 23 23 23 20 16 12 7 4 2 0 0 0 0 0 0 0 0 0 0 0 0 0 0 0 0 0 0 0 0 0 0 0 0
6 6 2 0 0 0 0 0 0 0 2 8 16 26 35 36 30 23 20 19 18 12 7 3 1 0 0 0 0 0 0 0 0 0 0 0 0 0 0 0 0 0 0 0 0 0 0 0 0
5 5 2 0 0 0 0 0 0 0 3 11 24 33 39 41 36 27 22 22 19 14 8 4 1 0 0 0 0 0 0 0 0 0 0 0 0 0 0 0 0 0 0 0 0 0 0 0 0
6 4 1 0 0 0 0 0 1 4 10 21 32 38 41 44 42 38 34 27 20 14 10 6 1 0 0 0 0 0 0 0 0 0 0 0 0 0 0 0 0 0 0 0 0 0 0 0 0
6 3 1 0 0 0 0 0 2 10 20 33 43 46 47 49 51 51 47 34 19 12 9 6 2 0 0 0 0 0 0 0 0 0 0 0 0 0 0 0 0 0 0 0 0 0 0 0 0
3 2 0 0 0 0 0 0 3 11 24 38 49 54 55 56 56 56 53 39 20 10 6 5 2 0 0 0 0 0 0 0 0 0 0 0 0 0 0 0 0 0 0 0 0 0 0 0 0
2 1 0 0 0 0 0 0 2 7 17 31 43 50 54 56 54 51 49 41 25 12 6 4 4 1 0 0 0 0 0 0 0 0 0 0 0 0 0 0 0 0 0 0 0 0 0 0 0
1 0 0 0 0 0 1 1 3 5 11 23 36 43 46 48 47 45 44 41 31 18 9 4 4 2 0 0 0 0 0 0 0 0 0 0 0 0 0 0 0 0 0 0 0 0 0 0 0
0 0 0 0 0 1 2 3 3 6 12 24 35 39 40 41 43 44 43 41 34 24 13 7 4 2 0 0 0 0 0 0 0 0 0 0 0 0 0 0 0 0 0 0 0 0 0 0 0
0 0 0 0 0 1 2 3 3 5 14 26 33 34 35 38 43 46 46 41 35 28 21 13 7 4 2 0 0 0 0 0 0 0 0 0 0 0 0 0 0 0 0 0 0 0 0 0 0
0 0 0 0 0 1 1 2 3 4 10 19 25 26 29 35 39 43 44 40 33 29 26 21 13 8 5 1 0 0 0 0 0 0 0 0 0 0 0 0 0 0 0 0 0 0 0 0 0
0 0 0 0 0 0 0 1 3 3 6 11 16 18 22 26 30 32 35 35 33 30 29 26 20 15 8 2 0 0 0 0 0 0 0 0 0 0 0 0 0 0 0 0 0 0 0 0 0
0 0 0 0 0 0 0 1 2 3 3 5 8 11 13 16 18 20 23 26 29 32 32 30 27 22 13 5 0 0 0 0 0 0 0 0 0 0 0 0 0 0 0 0 0 0 0 0 0
0 0 0 0 0 0 0 1 1 1 1 1 3 5 6 7 8 9 11 15 20 28 31 30 27 23 15 7 3 1 1 0 0 0 0 0 0 0 0 0 0 0 0 0 0 0 0 0 0
0 0 0 0 0 0 0 0 0 0 0 0 0 1 2 2 2 2 3 6 10 18 24 25 23 19 13 10 8 5 3 2 1 1 1 1 0 0 0 0 0 0 0 0 0 0 0 0 0
0 0 0 0 0 0 0 0 0 0 0 0 0 0 0 0 0 0 1 3 6 10 13 16 18 17 15 14 12 8 6 5 4 3 3 2 1 0 0 0 0 0 0 0 0 0 0 0 0
0 0 0 0 0 0 0 0 0 0 0 0 0 0 0 0 0 0 0 1 4 6 6 9 13 16 17 17 14 10 8 7 6 5 4 2 1 0 0 0 0 0 0 0 0 0 0 0 0
0 0 0 0 0 0 0 0 0 0 0 0 0 0 0 0 0 0 0 0 1 3 4 7 11 13 15 17 16 12 9 8 7 5 3 1 0 0 0 0 0 0 0 0 0 0 0 0 0
0 0 0 0 0 0 0 0 0 0 0 0 0 0 0 0 0 0 0 0 0 1 4 8 11 12 13 14 14 11 8 6 5 3 2 1 0 0 0 0 0 0 0 0 0 0 0 0 0
0 0 0 0 0 0 0 0 0 0 0 0 0 0 0 0 0 0 0 0 0 0 2 6 8 9 8 9 9 8 6 4 3 3 1 0 0 0 0 0 0 0 0 0 0 0 0 0 0
0 0 0 0 0 0 0 0 0 0 0 0 0 0 0 0 0 0 0 0 0 0 0 2 4 4 3 4 5 5 4 4 3 2 1 0 0 0 0 0 0 0 0 0 0 0 0 0 0
0 0 0 0 0 0 0 0 0 0 0 0 0 0 0 0 0 0 0 0 0 0 0 0 1 2 1 2 3 4 5 4 4 3 1 0 0 0 0 0 0 0 0 0 0 0 0 0 0
0 0 0 0 0 0 0 0 0 0 0 0 0 0 0 0 0 0 0 0 0 0 0 0 1 1 1 2 2 3 3 4 3 2 1 0 0 0 0 0 0 0 0 0 0 0 0 0 0
0 0 0 0 0 0 0 0 0 0 0 0 0 0 0 0 0 0 0 0 0 0 0 0 0 0 0 1 1 1 1 2 2 1 1 0 0 0 0 0 0 0 0 0 0 0 0 0 0
0 0 0 0 0 0 0 0 0 0 0 0 0 0 0 0 0 0 0 0 0 0 0 0 0 0 0 0 0 0 0 1 1 0 0 0 0 0 0 0 0 0 0 0 0 0 0 0 0
0 0 0 0 0 0 0 0 0 0 0 0 0 0 0 0 0 0 0 0 0 0 0 0 0 0 0 0 0 0 0 0 0 0 0 0 0 0 0 0 0 0 0 0 0 0 0 0 0
Wind_Speed
7 4 1 3 4 2 5 6 4 3 1 1 1 2 2 1 2 2 4 12 16 16 14 16 17 17 16 15 15 15 14 15 15 15 15 16 17 17 17 17 17 17 17 16 16 15 14 14 13
3 2 2 3 5 4 6 6 6 6 4 0 2 2 3 2 3 5 6 14 18 15 13 13 17 17 17 16 15 15 15 15 15 15 15 16 16 16 16 16 16 16 16 15 15 14 13 12 11
3 1 2 3 5 8 7 6 8 6 3 2 1 2 2 1 3 3 8 16 15 12 11 14 18 17 17 16 15 15 15 15 15 15 15 16 16 16 16 16 15 15 14 14 13 12 11 10 10
1 1 1 3 8 8 7 5 6 5 2 2 3 0 1 2 1 6 14 15 14 10 9 13 17 17 16 16 15 16 15 15 15 15 15 15 16 15 15 15 14 13 13 12 12 11 10 9 9
1 2 4 6 9 6 6 5 6 6 6 4 5 4 0 4 6 16 15 15 14 11 10 13 17 17 16 15 15 16 16 15 15 15 15 15 15 15 14 13 13 12 12 11 10 9 8 7 7
1 2 5 9 10 7 5 6 5 5 5 5 6 5 2 1 7 11 13 13 13 12 10 12 16 15 15 15 15 15 16 15 14 15 15 15 14 14 13 12 12 11 11 10 9 8 7 5 5
4 4 6 8 8 7 7 5 7 7 6 7 7 7 4 3 4 9 11 12 12 11 10 8 9 10 13 13 12 13 14 14 13 14 14 13 12 12 12 11 10 10 9 8 7 6 4 3 2
3 3 6 6 8 9 6 3 5 8 6 4 6 9 8 7 7 8 11 11 12 11 9 8 7 7 7 7 11 12 12 12 12 12 11 11 10 9 10 8 8 8 7 6 5 4 2 0 2
2 4 8 8 8 6 3 3 2 3 5 3 3 5 8 12 12 12 12 10 10 11 10 9 8 7 6 6 8 9 11 11 10 9 11 9 5 5 5 6 7 7 6 6 4 3 2 2 3
4 6 8 5 4 2 1 1 1 3 3 3 4 5 9 13 14 15 15 14 13 12 11 9 9 8 7 6 6 5 5 6 5 5 6 4 4 3 5 6 7 6 5 5 5 4 3 3 2
5 6 4 2 1 0 1 2 2 4 3 5 9 12 10 12 14 14 13 13 13 11 10 10 9 9 7 5 5 3 3 3 4 5 5 4 3 3 3 2 3 3 3 2 3 3 2 2 3
4 5 4 3 3 1 1 2 3 1 2 3 8 13 11 12 14 14 13 13 12 11 10 10 10 9 8 6 5 4 4 3 3 5 5 4 3 3 3 2 3 2 2 2 2 2 3 4 4
4 3 3 2 3 2 2 2 2 3 3 1 6 10 11 11 10 10 11 12 12 12 11 11 11 10 8 7 5 6 5 5 5 4 5 5 4 4 3 3 3 3 3 3 3 3 4 4 4
3 3 3 3 2 2 2 3 2 4 3 1 5 7 9 10 9 8 10 11 12 12 12 11 11 10 9 7 6 5 5 5 5 4 5 6 5 4 4 3 3 3 3 3 3 4 3 3 2
2 1 1 3 3 2 1 3 4 4 3 1 3 4 6 7 8 9 11 11 12 11 12 12 11 10 9 8 7 5 5 5 5 4 5 5 5 5 4 3 3 3 3 3 2 2 1 1 1
2 3 3 3 5 3 3 6 5 1 1 2 3 3 4 6 7 7 8 8 8 9 10 11 10 10 8 7 6 4 4 5 4 4 4 5 5 5 4 3 2 2 2 1 1 1 1 1 2
2 4 4 3 5 4 4 5 4 1 1 3 3 3 2 3 4 5 6 7 9 10 10 10 9 10 9 7 5 4 4 4 4 4 3 4 4 4 4 3 2 2 1 1 1 1 1 2 2
4 4 4 5 4 5 5 4 3 1 1 4 5 4 4 4 5 5 6 6 7 8 9 9 9 9 8 5 4 3 3 3 3 3 3 4 3 4 3 2 2 1 1 1 1 1 1 2 2
3 4 4 4 4 5 6 5 5 4 4 5 5 5 5 6 5 4 5 6 6 7 8 9 9 9 7 5 5 4 4 3 3 3 4 4 4 4 3 2 2 1 1 1 1 1 1 2 1
2 4 3 2 5 5 4 6 6 6 7 7 8 8 8 6 5 5 5 6 8 9 9 9 9 9 8 6 4 3 3 3 3 2 3 3 4 4 3 3 2 1 1 1 0 0 0 1 0
2 4 4 4 3 2 4 3 5 6 7 8 9 9 9 10 9 7 7 7 7 8 10 9 9 9 9 7 4 3 3 2 2 2 2 2 4 4 4 3 3 2 2 1 0 0 1 1 1
2 4 5 5 5 2 4 3 5 8 9 11 11 10 11 11 9 8 8 7 8 9 8 8 8 8 7 8 8 8 6 5 5 4 3 3 4 4 4 4 3 2 2 2 1 1 0 1 1
2 1 3 5 4 2 2 2 6 5 8 13 13 13 13 12 11 10 11 10 8 7 6 6 6 7 7 8 9 8 5 4 3 4 5 3 3 4 4 4 3 3 2 2 1 1 1 0 1
2 4 5 4 3 1 5 4 6 6 11 10 12 12 12 10 9 10 9 7 5 4 5 5 7 6 5 6 7 8 8 7 7 6 5 4 3 3 3 4 3 3 2 2 1 1 1 0 0
4 4 3 2 1 4 4 4 9 8 9 11 11 11 10 8 7 7 7 7 6 6 6 5 6 5 5 5 6 7 8 9 9 7 7 6 4 2 3 3 3 2 2 2 1 1 0 0 0
3 4 5 4 4 2 2 6 8 6 4 4 5 6 6 6 6 7 7 7 7 7 6 6 6 5 5 5 5 5 6 5 4 5 5 5 4 3 4 4 3 3 2 2 1 1 0 1 0
3 2 3 4 2 1 3 5 6 2 2 1 2 2 2 3 4 5 6 6 6 7 7 7 7 5 5 6 5 5 5 5 5 5 5 4 4 4 4 4 4 3 2 2 1 1 1 1 1
2 3 3 3 3 2 2 3 3 4 2 1 2 2 1 1 2 3 4 5 5 5 4 4 5 5 5 5 5 5 5 5 6 5 6 5 5 4 5 4 4 3 2 2 1 1 1 1 1
2 2 2 2 2 4 2 5 4 4 3 2 2 1 2 2 2 2 2 3 3 4 4 5 5 5 5 5 5 6 5 5 6 5 5 5 4 5 5 4 4 3 2 2 1 1 1 2 1
2 3 3 3 2 2 2 5 5 1 1 3 2 2 2 2 1 1 1 2 3 4 4 5 5 5 6 6 6 6 6 6 6 6 5 5 5 5 4 4 4 3 2 1 1 1 2 2 2
Wind_Direction
313 332 52 65 81 111 225 226 218 223 209 216 17 82 95 125 180 189 108 132 134 143 146 145 143 138 134 131 129 127 122 117 113 111 108 106 105 102 101 101 100 99 98 97 96 96 96 94 91
314 335 65 88 139 182 231 219 212 218 192 99 4 44 57 55 68 95 120 138 138 142 143 144 142 138 136 134 134 131 125 121 118 114 111 109 107 105 104 102 101 100 99 99 98 97 96 92 86
303 228 138 134 173 193 213 207 204 219 213 155 30 356 55 46 60 101 138 140 135 138 140 144 141 139 138 137 136 132 128 124 122 119 115 112 110 109 108 106 105 103 103 102 101 98 94 88 81
333 77 119 178 210 212 206 198 176 181 191 176 152 304 358 357 308 129 136 137 134 133 137 144 140 140 139 139 138 135 131 128 126 124 120 117 115 113 112 110 108 107 106 104 102 99 93 84 75
81 147 190 213 223 226 222 220 182 176 175 180 166 170 271 350 97 125 135 138 136 135 139 143 141 141 141 142 141 138 135 133 131 129 125 123 120 119 117 116 114 112 111 109 107 104 97 86 74
140 163 194 210 221 231 231 213 181 183 184 187 171 153 181 41 112 131 137 139 138 140 141 144 143 142 143 144 142 141 139 137 134 133 130 128 127 125 124 123 122 120 118 115 113 109 102 88 72
177 177 203 205 216 230 229 205 172 175 187 188 166 147 160 153 131 133 138 139 140 141 139 139 140 141 144 143 142 142 141 139 136 136 135 133 132 131 130 130 129 127 125 123 122 119 112 95 59
188 178 205 202 204 223 226 206 182 172 182 171 160 156 169 168 136 136 137 139 143 143 141 137 136 135 136 139 142 140 140 140 141 138 136 136 138 138 137 137 139 140 139 140 143 145 146 118 333
174 198 207 199 196 216 224 211 208 171 136 139 160 165 161 145 136 139 139 142 148 149 147 143 141 139 138 141 143 140 141 143 142 142 146 141 139 141 145 154 156 158 161 166 174 191 222 271 302
181 208 214 201 187 198 225 194 264 133 138 127 115 111 133 141 146 149 154 156 158 160 158 154 152 150 151 151 140 140 143 147 145 150 154 150 153 165 168 175 179 181 185 196 211 228 252 275 297
193 210 221 252 212 101 348 338 341 141 167 171 161 151 150 153 154 158 160 160 162 163 164 163 160 159 160 149 153 152 149 155 158 163 167 165 166 174 172 173 190 199 207 225 253 266 264 262 267
220 238 224 265 325 12 11 346 0 330 223 200 167 157 157 164 166 165 163 165 163 164 170 169 165 166 165 159 164 163 162 168 174 181 179 171 172 178 178 186 195 202 209 224 244 250 257 260 260
237 247 228 252 313 322 342 335 350 295 312 132 149 158 166 172 173 166 162 164 165 170 174 172 168 170 169 167 172 173 177 182 185 184 187 181 176 182 187 196 201 208 209 215 230 241 252 256 256
229 208 234 222 224 298 280 302 335 278 331 117 159 174 178 177 174 169 163 169 173 177 174 170 171 173 170 173 176 176 181 183 182 185 186 181 176 176 178 190 198 209 210 212 215 225 236 247 251
243 175 244 225 186 211 109 273 252 278 317 209 200 199 190 182 176 179 177 174 175 174 172 171 174 175 176 176 176 174 173 172 176 182 180 176 173 172 170 177 190 208 209 208 214 233 237 259 269
159 150 186 208 172 171 161 230 242 288 335 248 239 236 206 197 189 183 178 175 175 171 171 173 173 172 180 182 176 170 170 167 172 172 170 171 171 166 161 167 189 202 191 184 201 222 248 270 278
141 162 174 178 172 150 178 234 248 150 13 279 260 251 233 222 209 196 182 175 178 177 170 171 170 172 177 182 177 170 164 163 164 161 162 167 166 163 156 166 187 183 168 182 206 209 213 255 276
166 154 163 173 167 158 191 240 271 236 247 269 266 257 246 224 221 210 192 182 180 181 173 172 169 172 171 171 164 159 151 160 157 160 163 161 159 157 149 153 169 154 154 203 223 235 237 240 260
150 142 153 177 158 158 194 225 250 257 260 265 268 261 251 244 237 227 203 183 175 177 178 178 174 175 169 168 174 172 175 172 165 165 160 156 150 147 140 140 137 129 150 198 229 232 257 269 272
169 138 150 151 164 157 186 225 232 237 241 244 245 246 245 252 255 233 217 194 186 184 184 185 185 179 178 177 177 173 162 161 160 154 141 145 143 139 136 137 135 129 133 117 74 130 208 266 220
207 178 175 155 157 156 141 249 229 239 241 245 241 238 237 228 224 223 215 208 195 193 192 189 187 181 179 168 150 128 113 107 134 151 142 143 138 129 124 125 122 113 122 130 97 88 170 260 286
206 215 184 154 140 170 162 228 244 215 228 236 234 231 233 232 220 216 213 210 204 200 193 190 184 179 176 166 165 167 173 183 187 167 154 139 126 119 115 112 110 108 108 111 91 79 141 200 254
195 215 149 146 134 114 159 184 273 210 221 230 229 227 226 225 217 212 212 210 207 196 185 182 177 177 175 175 178 176 177 173 144 134 142 135 116 111 110 109 108 105 97 93 77 67 53 173 217
128 70 60 59 83 195 195 179 265 223 213 220 223 225 225 220 216 215 213 205 195 180 172 169 167 174 172 172 174 175 171 161 152 156 158 149 129 107 107 107 106 102 96 86 74 64 64 53 241
101 102 96 87 146 241 192 191 247 244 228 219 217 218 223 216 206 204 197 191 187 179 172 169 164 166 168 167 172 174 170 165 168 167 165 157 150 146 143 121 117 107 102 93 78 62 29 353 280
151 142 152 162 186 259 183 224 255 269 263 225 206 203 206 205 195 194 191 188 185 179 170 167 166 165 161 158 161 159 157 155 159 161 157 158 156 151 145 129 120 111 103 92 78 69 18 42 13
136 168 162 121 125 158 248 273 305 326 3 65 117 129 173 194 191 191 183 179 181 180 177 174 168 165 162 155 143 138 142 141 141 138 132 132 133 133 129 123 119 111 102 94 94 88 62 86 73
133 140 101 119 150 195 269 273 261 287 294 79 107 118 121 118 147 164 172 175 180 181 171 164 165 166 161 152 147 140 138 133 131 129 129 130 128 125 129 127 124 116 100 87 88 88 101 106 85
126 125 129 136 160 159 201 268 255 247 235 162 131 122 124 123 138 161 175 176 168 161 163 168 168 160 156 152 140 133 132 130 129 129 133 133 129 132 132 131 127 120 106 97 105 125 122 118 100
180 181 155 154 219 173 164 273 304 293 153 122 115 93 78 79 80 119 148 149 164 177 180 181 177 171 165 153 142 139 136 135 135 135 138 135 131 129 130 130 131 129 120 116 136 149 134 133 121